,,PA_Meas_PMT16A,,PR_Meas_QMR101_102,,RH_Meas_QMH101,,SR_Meas_QMS101,,TA_Meas_QMH101,,GenWind,,GenWind,
time,status,PA,status,PR,status,RH,status,SR,status,TA,status,DirAvg,status,SpdAvg,
2010-02-17, 00:00:04,VALID,918.365,VALID,0,VALID,91.4276,VALID,0.107441,VALID,21.5542,VALID,133,VALID,0.235938,
2010-02-17, 00:01:04,VALID,918.347,VALID,0,VALID,91.6868,VALID,0.107441,VALID,21.5331,VALID,133,VALID,0.55625,
2010-02-17, 00:02:04,VALID,918.383,VALID,0,VALID,91.9613,VALID,0.107441,VALID,21.4746,VALID,133,VALID,0.974609,
2010-02-17, 00:03:04,VALID,918.358,VALID,0,VALID,92.1823,VALID,0.107441,VALID,21.4355,VALID,133,VALID,1.16328,
2010-02-17, 00:04:04,VALID,918.368,VALID,0,VALID,92.3501,VALID,0.107441,VALID,21.3965,VALID,132,VALID,0.900781,
2010-02-17, 00:05:04,VALID,918.354,VALID,0,VALID,92.4797,VALID,0.107441,VALID,21.3965,VALID,132,VALID,0.847266,
2010-02-17, 00:06:04,VALID,918.363,VALID,0,VALID,92.6779,VALID,0.107441,VALID,21.3575,VALID,132,VALID,0.523438,
2010-02-17, 00:07:04,VALID,918.371,VALID,0,VALID,92.9066,VALID,0.107441,VALID,21.338,VALID,132,VALID,0.495703,
2010-02-17, 00:08:04,VALID,918.345,VALID,0,VALID,93.2039,VALID,0.107441,VALID,21.338,VALID,132,VALID,0.429297,
2010-02-17, 00:09:04,VALID,918.322,VALID,0,VALID,93.2801,VALID,0.107441,VALID,21.3591,VALID,132,VALID,0.384375,
2010-02-17, 00:10:04,VALID,918.315,VALID,0,VALID,93.0514,VALID,0.107441,VALID,21.3185,VALID,132,VALID,0.564844,
2010-02-17, 00:11:04,VALID,918.239,VALID,0,VALID,93.1429,VALID,0.107441,VALID,21.3185,VALID,132,VALID,0.478125,
2010-02-17, 00:12:04,VALID,918.239,VALID,0,VALID,92.9904,VALID,0.107441,VALID,21.3185,VALID,132,VALID,0.659766,
2010-02-17, 00:13:04,VALID,918.253,VALID,0,VALID,92.9752,VALID,0.107441,VALID,21.3006,VALID,132,VALID,0.660547,
2010-02-17, 00:14:04,VALID,918.27,VALID,0,VALID,92.9752,VALID,0.107441,VALID,21.2795,VALID,132,VALID,0.858203,
2010-02-17, 00:15:04,VALID,918.241,VALID,0,VALID,93.0285,VALID,0.107441,VALID,21.2811,VALID,132,VALID,0.820703,
2010-02-17, 00:16:04,VALID,918.245,VALID,0,VALID,92.9828,VALID,0,VALID,21.2616,VALID,132,VALID,0.828516,
2010-02-17, 00:17:04,VALID,918.262,VALID,0,VALID,92.9599,VALID,0,VALID,21.2616,VALID,132,VALID,0.620313,
2010-02-17, 00:18:04,VALID,918.281,VALID,0,VALID,93.0285,VALID,0,VALID,21.2421,VALID,132,VALID,0.732422,
2010-02-17, 00:19:04,VALID,918.292,VALID,0,VALID,93.0438,VALID,0,VALID,21.2421,VALID,132,VALID,0.653516,
2010-02-17, 00:20:04,VALID,918.308,VALID,0,VALID,93.1048,VALID,0,VALID,21.2226,VALID,132,VALID,0.885547,
2010-02-17, 00:21:04,VALID,918.301,VALID,0,VALID,93.0438,VALID,0,VALID,21.2421,VALID,132,VALID,0.695313,
2010-02-17, 00:22:04,VALID,918.291,VALID,0,VALID,93.0133,VALID,0,VALID,21.2616,VALID,132,VALID,0.310156,
2010-02-17, 00:23:04,VALID,918.245,VALID,0,VALID,92.8075,VALID,0,VALID,21.3022,VALID,132,VALID,0.615234,
2010-02-17, 00:24:04,VALID,918.243,VALID,0,VALID,92.655,VALID,0,VALID,21.3217,VALID,132,VALID,0.267969,
2010-02-17, 00:25:04,VALID,918.239,VALID,0,VALID,92.3577,VALID,0,VALID,21.3412,VALID,132,VALID,0.662109,
2010-02-17, 00:26:04,VALID,918.245,VALID,0,VALID,91.9384,VALID,0,VALID,21.3396,VALID,132,VALID,0.837891,
2010-02-17, 00:27:04,VALID,918.189,VALID,0,VALID,91.6868,VALID,0,VALID,21.3786,VALID,132,VALID,0.689062,
2010-02-17, 00:28:04,VALID,918.149,VALID,0,VALID,91.6258,VALID,0,VALID,21.4177,VALID,132,VALID,0.932031,
2010-02-17, 00:29:04,VALID,918.118,VALID,0,VALID,91.2294,VALID,0,VALID,21.4177,VALID,132,VALID,1.07422,
2010-02-17, 00:30:04,VALID,918.085,VALID,0,VALID,90.6805,VALID,0,VALID,21.4762,VALID,132,VALID,1.03203,
2010-02-17, 00:31:04,VALID,918.018,VALID,0,VALID,90.6424,VALID,0,VALID,21.4957,VALID,132,VALID,0.719922,
2010-02-17, 00:32:04,VALID,917.997,VALID,0,VALID,89.7886,VALID,0,VALID,21.5754,VALID,132,VALID,1.18281,
2010-02-17, 00:33:04,VALID,917.956,VALID,0,VALID,89.6437,VALID,0,VALID,21.6339,VALID,131,VALID,0.759766,
2010-02-17, 00:34:04,VALID,917.988,VALID,0,VALID,89.7962,VALID,0,VALID,21.6323,VALID,131,VALID,1.05508,
2010-02-17, 00:35:04,VALID,918.031,VALID,0,VALID,89.9868,VALID,0,VALID,21.6128,VALID,131,VALID,1.24141,
2010-02-17, 00:36:04,VALID,918.024,VALID,0,VALID,89.6742,VALID,0,VALID,21.6339,VALID,108,VALID,1.50508,
2010-02-17, 00:37:04,VALID,918.018,VALID,0,VALID,89.4684,VALID,0,VALID,21.6339,VALID,109,VALID,1.61289,
2010-02-17, 00:38:04,VALID,918.027,VALID,0,VALID,89.4837,VALID,0,VALID,21.6128,VALID,109,VALID,1.20352,
2010-02-17, 00:39:04,VALID,918.021,VALID,0,VALID,89.3769,VALID,0,VALID,21.6534,VALID,109,VALID,0.996875,
2010-02-17, 00:40:04,VALID,918.016,VALID,0,VALID,89.2626,VALID,0.107441,VALID,21.6534,VALID,109,VALID,0.743359,
2010-02-17, 00:41:04,VALID,917.994,VALID,0,VALID,89.1787,VALID,0,VALID,21.6729,VALID,109,VALID,0.792188,
2010-02-17, 00:42:04,VALID,918.01,VALID,0,VALID,89.2778,VALID,0,VALID,21.6713,VALID,109,VALID,0.729688,
2010-02-17, 00:43:04,VALID,918.032,VALID,0,VALID,88.8509,VALID,0,VALID,21.712,VALID,109,VALID,0.921875,
2010-02-17, 00:44:04,VALID,918.084,VALID,0,VALID,88.9043,VALID,0,VALID,21.7315,VALID,109,VALID,0.335156,
2010-02-17, 00:45:04,VALID,918.103,VALID,0,VALID,89.1406,VALID,0,VALID,21.7298,VALID,109,VALID,0.729297,
2010-02-17, 00:46:05,VALID,918.104,VALID,0,VALID,89.3236,VALID,0,VALID,21.7315,VALID,109,VALID,0.477734,
2010-02-17, 00:47:05,VALID,918.144,VALID,0,VALID,90.4747,VALID,0,VALID,21.6908,VALID,109,VALID,1.04062,
2010-02-17, 00:48:05,VALID,918.169,VALID,0,VALID,91.2294,VALID,0,VALID,21.5932,VALID,109,VALID,0.850391,
2010-02-17, 00:49:05,VALID,918.169,VALID,0,VALID,92.0375,VALID,0,VALID,21.5152,VALID,109,VALID,0.517187,
2010-02-17, 00:50:05,VALID,918.154,VALID,0,VALID,92.5254,VALID,0,VALID,21.4567,VALID,109,VALID,0.572656,
2010-02-17, 00:51:05,VALID,918.138,VALID,0,VALID,92.6169,VALID,0,VALID,21.4177,VALID,273,VALID,0.85,
2010-02-17, 00:52:05,VALID,918.148,VALID,0,VALID,92.7846,VALID,0,VALID,21.3803,VALID,273,VALID,1.20195,
2010-02-17, 00:53:05,VALID,918.128,VALID,0,VALID,92.9523,VALID,0,VALID,21.3591,VALID,273,VALID,0.844531,
2010-02-17, 00:54:05,VALID,918.142,VALID,0,VALID,92.7541,VALID,0,VALID,21.3396,VALID,273,VALID,1.25937,
2010-02-17, 00:55:05,VALID,918.145,VALID,0,VALID,92.6626,VALID,0,VALID,21.3786,VALID,273,VALID,0.698047,
2010-02-17, 00:56:05,VALID,918.159,VALID,0,VALID,92.4187,VALID,0,VALID,21.3981,VALID,273,VALID,0.811719,
2010-02-17, 00:57:05,VALID,918.19,VALID,0,VALID,92.4187,VALID,0,VALID,21.4388,VALID,273,VALID,0.50625,
2010-02-17, 00:58:05,VALID,918.186,VALID,0,VALID,92.2891,VALID,0,VALID,21.4567,VALID,273,VALID,0.574609,
2010-02-17, 00:59:05,VALID,918.188,VALID,0,VALID,92.1519,VALID,0,VALID,21.4567,VALID,272,VALID,0.75,
2010-02-17, 01:00:05,VALID,918.209,VALID,0,VALID,92.2205,VALID,0,VALID,21.4778,VALID,272,VALID,0.522266,
2010-02-17, 01:01:05,VALID,918.208,VALID,0,VALID,92.5025,VALID,0,VALID,21.4567,VALID,272,VALID,0.828516,
2010-02-17, 01:02:05,VALID,918.2,VALID,0,VALID,92.3806,VALID,0.107441,VALID,21.4372,VALID,272,VALID,1.25078,
2010-02-17, 01:03:05,VALID,918.18,VALID,0,VALID,92.5635,VALID,0,VALID,21.4177,VALID,272,VALID,0.817578,
2010-02-17, 01:04:05,VALID,918.188,VALID,0,VALID,92.8151,VALID,0,VALID,21.4177,VALID,272,VALID,0.530859,
2010-02-17, 01:05:05,VALID,918.151,VALID,0,VALID,92.9447,VALID,0,VALID,21.3981,VALID,272,VALID,0.616406,
2010-02-17, 01:06:05,VALID,918.109,VALID,0,VALID,93.181,VALID,0,VALID,21.3981,VALID,272,VALID,0.339063,
2010-02-17, 01:07:05,VALID,918.161,VALID,0,VALID,92.9523,VALID,0,VALID,21.4193,VALID,272,VALID,0.661328,
2010-02-17, 01:08:05,VALID,918.12,VALID,0,VALID,93.0819,VALID,0,VALID,21.4193,VALID,272,VALID,0.596484,
2010-02-17, 01:09:05,VALID,918.084,VALID,0,VALID,93.12,VALID,0,VALID,21.3998,VALID,272,VALID,0.317187,
2010-02-17, 01:10:05,VALID,918.122,VALID,0,VALID,93.0438,VALID,0,VALID,21.3998,VALID,272,VALID,0.248047,
2010-02-17, 01:11:05,VALID,918.084,VALID,0,VALID,92.9142,VALID,0,VALID,21.3786,VALID,272,VALID,0.656641,
2010-02-17, 01:12:05,VALID,918.042,VALID,0,VALID,92.6169,VALID,0,VALID,21.3998,VALID,272,VALID,0.786328,
2010-02-17, 01:13:05,VALID,918.034,VALID,0,VALID,92.6626,VALID,0,VALID,21.4177,VALID,272,VALID,0.601172,
2010-02-17, 01:14:05,VALID,918.014,VALID,0,VALID,92.8456,VALID,0,VALID,21.4372,VALID,272,VALID,0.602344,
2010-02-17, 01:15:05,VALID,917.971,VALID,0,VALID,92.777,VALID,0,VALID,21.4583,VALID,272,VALID,0.447266,
2010-02-17, 01:16:05,VALID,917.969,VALID,0,VALID,92.6702,VALID,0,VALID,21.4583,VALID,272,VALID,0.640625,
2010-02-17, 01:17:05,VALID,917.925,VALID,0,VALID,92.594,VALID,0,VALID,21.4372,VALID,272,VALID,0.489062,
2010-02-17, 01:18:05,VALID,917.908,VALID,0,VALID,92.5483,VALID,0,VALID,21.4567,VALID,272,VALID,0.717969,
2010-02-17, 01:19:05,VALID,917.9,VALID,0,VALID,92.5864,VALID,0,VALID,21.4388,VALID,272,VALID,0.453516,
2010-02-17, 01:20:05,VALID,917.919,VALID,0,VALID,92.7084,VALID,0,VALID,21.4193,VALID,272,VALID,0.333203,
2010-02-17, 01:21:05,VALID,917.916,VALID,0,VALID,92.6931,VALID,0,VALID,21.3591,VALID,272,VALID,0.427344,
2010-02-17, 01:22:05,VALID,917.927,VALID,0,VALID,92.8303,VALID,0,VALID,21.3608,VALID,133,VALID,0.896094,
2010-02-17, 01:23:05,VALID,917.922,VALID,0,VALID,93.0133,VALID,0,VALID,21.3006,VALID,133,VALID,0.776563,
2010-02-17, 01:24:05,VALID,917.949,VALID,0,VALID,93.2572,VALID,0,VALID,21.2827,VALID,133,VALID,0.891797,
2010-02-17, 01:25:05,VALID,917.916,VALID,0,VALID,93.364,VALID,0,VALID,21.2827,VALID,133,VALID,0.822266,
2010-02-17, 01:26:05,VALID,917.867,VALID,0,VALID,93.4859,VALID,0,VALID,21.2226,VALID,133,VALID,0.478516,
2010-02-17, 01:27:05,VALID,917.847,VALID,0,VALID,93.5622,VALID,0,VALID,21.2226,VALID,133,VALID,0.407813,
2010-02-17, 01:28:05,VALID,917.821,VALID,0,VALID,93.6003,VALID,0,VALID,21.1836,VALID,133,VALID,0.383203,
2010-02-17, 01:29:05,VALID,917.792,VALID,0,VALID,93.7604,VALID,0,VALID,21.2031,VALID,133,VALID,0.306641,
2010-02-17, 01:30:05,VALID,917.764,VALID,0,VALID,93.7223,VALID,0,VALID,21.2437,VALID,133,VALID,0.370703,
2010-02-17, 01:31:05,VALID,917.743,VALID,0,VALID,93.6918,VALID,0,VALID,21.2242,VALID,133,VALID,0.289844,
2010-02-17, 01:32:05,VALID,917.689,VALID,0,VALID,93.6308,VALID,0,VALID,21.2421,VALID,133,VALID,0.373828,
2010-02-17, 01:33:05,VALID,917.645,VALID,0,VALID,93.6003,VALID,0,VALID,21.2226,VALID,133,VALID,0.442578,
2010-02-17, 01:34:05,VALID,917.605,VALID,0,VALID,93.6155,VALID,0,VALID,21.2242,VALID,133,VALID,0.254687,
2010-02-17, 01:35:05,VALID,917.588,VALID,0,VALID,93.6842,VALID,0,VALID,21.2242,VALID,133,VALID,0.0734375,
2010-02-17, 01:36:05,VALID,917.594,VALID,0,VALID,93.8366,VALID,0,VALID,21.2242,VALID,133,VALID,0,
2010-02-17, 01:37:05,VALID,917.559,VALID,0,VALID,93.7985,VALID,0,VALID,21.2242,VALID,133,VALID,0.110156,
2010-02-17, 01:38:05,VALID,917.5,VALID,0,VALID,93.8519,VALID,0,VALID,21.2031,VALID,133,VALID,0.432422,
2010-02-17, 01:39:05,VALID,917.515,VALID,0,VALID,93.8061,VALID,0,VALID,21.2226,VALID,133,VALID,0.317578,
2010-02-17, 01:40:05,VALID,917.502,VALID,0,VALID,93.7604,VALID,0,VALID,21.2827,VALID,133,VALID,0.378906,
2010-02-17, 01:41:05,VALID,917.431,VALID,0,VALID,93.5393,VALID,0,VALID,21.3217,VALID,133,VALID,0.455469,
2010-02-17, 01:42:05,VALID,917.401,VALID,0,VALID,93.5241,VALID,0,VALID,21.3608,VALID,133,VALID,0.263672,
2010-02-17, 01:43:05,VALID,917.397,VALID,0,VALID,93.3182,VALID,0,VALID,21.3608,VALID,133,VALID,0.293359,
2010-02-17, 01:44:05,VALID,917.401,VALID,0,VALID,93.364,VALID,0,VALID,21.3591,VALID,133,VALID,0.376563,
2010-02-17, 01:45:05,VALID,917.331,VALID,0,VALID,93.303,VALID,0,VALID,21.3591,VALID,133,VALID,0.114844,
2010-02-17, 01:46:05,VALID,917.358,VALID,0,VALID,93.5698,VALID,0,VALID,21.3998,VALID,133,VALID,0,
2010-02-17, 01:47:05,VALID,917.35,VALID,0,VALID,93.6689,VALID,0,VALID,21.3981,VALID,133,VALID,0.0863281,
2010-02-17, 01:48:05,VALID,917.328,VALID,0,VALID,93.6765,VALID,0,VALID,21.4177,VALID,133,VALID,0,
2010-02-17, 01:49:05,VALID,917.315,VALID,0,VALID,93.4936,VALID,0,VALID,21.4388,VALID,133,VALID,0.0765625,
2010-02-17, 01:50:05,VALID,917.283,VALID,0,VALID,93.4173,VALID,0,VALID,21.4388,VALID,133,VALID,0.519141,
2010-02-17, 01:51:05,VALID,917.267,VALID,0,VALID,93.0667,VALID,0,VALID,21.4177,VALID,133,VALID,0.289453,
2010-02-17, 01:52:05,VALID,917.241,VALID,0,VALID,92.9981,VALID,0,VALID,21.3981,VALID,133,VALID,0.296875,
2010-02-17, 01:53:05,VALID,917.203,VALID,0,VALID,93.1124,VALID,0,VALID,21.3981,VALID,133,VALID,0.274609,
2010-02-17, 01:54:05,VALID,917.215,VALID,0,VALID,93.3106,VALID,0,VALID,21.4193,VALID,133,VALID,0,
2010-02-17, 01:55:05,VALID,917.216,VALID,0,VALID,93.242,VALID,0,VALID,21.4193,VALID,133,VALID,0.240234,
2010-02-17, 01:56:05,VALID,917.249,VALID,0,VALID,93.364,VALID,0,VALID,21.4193,VALID,133,VALID,0.425781,
2010-02-17, 01:57:05,VALID,917.258,VALID,0,VALID,93.3945,VALID,0,VALID,21.3608,VALID,133,VALID,0.655078,
2010-02-17, 01:58:05,VALID,917.234,VALID,0,VALID,93.5469,VALID,0,VALID,21.3217,VALID,133,VALID,0.488281,
2010-02-17, 01:59:05,VALID,917.223,VALID,0,VALID,93.6537,VALID,0,VALID,21.2616,VALID,133,VALID,0.408203,
2010-02-17, 02:00:05,VALID,917.219,VALID,0,VALID,93.7985,VALID,0.107441,VALID,21.2421,VALID,133,VALID,0.398438,
2010-02-17, 02:01:05,VALID,917.193,VALID,0,VALID,93.9357,VALID,0,VALID,21.2437,VALID,133,VALID,0.571875,
2010-02-17, 02:02:05,VALID,917.144,VALID,0,VALID,94.0806,VALID,0,VALID,21.2632,VALID,133,VALID,0.776953,
2010-02-17, 02:03:05,VALID,917.153,VALID,0,VALID,94.0653,VALID,0.107441,VALID,21.2421,VALID,133,VALID,0.680859,
2010-02-17, 02:04:05,VALID,917.161,VALID,0,VALID,94.0958,VALID,0,VALID,21.2616,VALID,133,VALID,0.441406,
2010-02-17, 02:05:05,VALID,917.157,VALID,0,VALID,93.7147,VALID,0,VALID,21.2632,VALID,173,VALID,0.881641,
2010-02-17, 02:06:05,VALID,917.175,VALID,0,VALID,93.6918,VALID,0,VALID,21.3022,VALID,178,VALID,0.3625,
2010-02-17, 02:07:05,VALID,917.209,VALID,0,VALID,93.7451,VALID,0,VALID,21.2811,VALID,178,VALID,0.680859,
2010-02-17, 02:08:05,VALID,917.17,VALID,0,VALID,93.6918,VALID,0,VALID,21.2827,VALID,178,VALID,0.899609,
2010-02-17, 02:09:05,VALID,917.23,VALID,0,VALID,93.6994,VALID,0,VALID,21.2827,VALID,178,VALID,0.978906,
2010-02-17, 02:10:05,VALID,917.209,VALID,0,VALID,93.8366,VALID,0,VALID,21.2616,VALID,177,VALID,0.594141,
2010-02-17, 02:11:05,VALID,917.2,VALID,0,VALID,93.8443,VALID,0,VALID,21.2421,VALID,176,VALID,0.584375,
2010-02-17, 02:12:05,VALID,917.168,VALID,0,VALID,93.9586,VALID,0,VALID,21.2616,VALID,176,VALID,0.439063,
2010-02-17, 02:13:05,VALID,917.185,VALID,0,VALID,93.89,VALID,0,VALID,21.2421,VALID,176,VALID,0.631641,
2010-02-17, 02:14:05,VALID,917.178,VALID,0,VALID,94.0425,VALID,0,VALID,21.2616,VALID,175,VALID,0.461328,
2010-02-17, 02:15:05,VALID,917.167,VALID,0,VALID,93.9586,VALID,0,VALID,21.2616,VALID,175,VALID,0.462109,
2010-02-17, 02:16:05,VALID,917.186,VALID,0,VALID,94.0501,VALID,0,VALID,21.2632,VALID,175,VALID,0.568359,
2010-02-17, 02:17:05,VALID,917.213,VALID,0,VALID,94.1492,VALID,0,VALID,21.2226,VALID,175,VALID,0.555078,
2010-02-17, 02:18:05,VALID,917.201,VALID,0,VALID,94.2483,VALID,0,VALID,21.1836,VALID,175,VALID,0.463672,
2010-02-17, 02:19:05,VALID,917.219,VALID,0,VALID,94.4389,VALID,0,VALID,21.164,VALID,175,VALID,0.519922,
2010-02-17, 02:20:05,VALID,917.199,VALID,0,VALID,94.5837,VALID,0,VALID,21.1657,VALID,175,VALID,0.450391,
2010-02-17, 02:21:05,VALID,917.153,VALID,0,VALID,94.6981,VALID,0,VALID,21.1445,VALID,175,VALID,0.346484,
2010-02-17, 02:22:05,VALID,917.151,VALID,0,VALID,94.8048,VALID,0,VALID,21.1657,VALID,175,VALID,0.202344,
2010-02-17, 02:23:05,VALID,917.116,VALID,0,VALID,94.9268,VALID,0,VALID,21.1657,VALID,175,VALID,0.0277344,
2010-02-17, 02:24:05,VALID,917.093,VALID,0,VALID,94.9192,VALID,0,VALID,21.1445,VALID,175,VALID,0,
2010-02-17, 02:25:05,VALID,917.054,VALID,0,VALID,95.003,VALID,0,VALID,21.164,VALID,175,VALID,0.359766,
2010-02-17, 02:26:05,VALID,917.038,VALID,0,VALID,94.8429,VALID,0,VALID,21.164,VALID,175,VALID,0.363281,
2010-02-17, 02:27:05,VALID,917.052,VALID,0,VALID,94.7667,VALID,0.107441,VALID,21.164,VALID,175,VALID,0.189453,
2010-02-17, 02:28:05,VALID,917.013,VALID,0,VALID,94.6981,VALID,0,VALID,21.164,VALID,175,VALID,0.303906,
2010-02-17, 02:29:05,VALID,916.994,VALID,0,VALID,94.4846,VALID,0,VALID,21.1445,VALID,175,VALID,0.343359,
2010-02-17, 02:30:05,VALID,917.046,VALID,0,VALID,94.1644,VALID,0,VALID,21.1461,VALID,175,VALID,0.535937,
2010-02-17, 02:31:05,VALID,917.04,VALID,0,VALID,94.0272,VALID,0,VALID,21.1657,VALID,175,VALID,0.780078,
2010-02-17, 02:32:05,VALID,917.056,VALID,0,VALID,93.9434,VALID,0,VALID,21.1461,VALID,175,VALID,1.03242,
2010-02-17, 02:33:05,VALID,917.036,VALID,0,VALID,94.0196,VALID,0.107441,VALID,21.1055,VALID,175,VALID,0.760547,
2010-02-17, 02:34:05,VALID,917.045,VALID,0,VALID,94.1034,VALID,0,VALID,21.1055,VALID,175,VALID,0.885547,
2010-02-17, 02:35:05,VALID,917.008,VALID,0,VALID,94.1721,VALID,0,VALID,21.0876,VALID,175,VALID,0.705859,
2010-02-17, 02:36:05,VALID,916.983,VALID,0,VALID,94.2254,VALID,0,VALID,21.0876,VALID,174,VALID,0.667188,
2010-02-17, 02:37:05,VALID,916.985,VALID,0,VALID,94.416,VALID,0,VALID,21.1071,VALID,174,VALID,0.192188,
2010-02-17, 02:38:05,VALID,916.97,VALID,0,VALID,94.3474,VALID,0,VALID,21.086,VALID,174,VALID,0.435937,
2010-02-17, 02:39:05,VALID,916.946,VALID,0,VALID,94.2102,VALID,0,VALID,21.1055,VALID,174,VALID,0.570703,
2010-02-17, 02:40:05,VALID,916.902,VALID,0,VALID,93.9357,VALID,0,VALID,21.1055,VALID,174,VALID,0.589063,
2010-02-17, 02:41:05,VALID,916.909,VALID,0,VALID,93.8595,VALID,0,VALID,21.1055,VALID,174,VALID,0.475391,
2010-02-17, 02:42:05,VALID,916.89,VALID,0,VALID,93.829,VALID,0,VALID,21.1445,VALID,174,VALID,0.202344,
2010-02-17, 02:43:05,VALID,916.823,VALID,0,VALID,93.6613,VALID,0,VALID,21.1657,VALID,174,VALID,0.476953,
2010-02-17, 02:44:05,VALID,916.812,VALID,0,VALID,93.9052,VALID,0,VALID,21.164,VALID,174,VALID,0.382813,
2010-02-17, 02:45:05,VALID,916.821,VALID,0,VALID,93.9586,VALID,0,VALID,21.1445,VALID,174,VALID,0.588672,
2010-02-17, 02:46:05,VALID,916.818,VALID,0,VALID,94.1492,VALID,0.107441,VALID,21.1234,VALID,174,VALID,0.337109,
2010-02-17, 02:47:05,VALID,916.844,VALID,0,VALID,94.233,VALID,0.107441,VALID,21.125,VALID,174,VALID,0.573828,
2010-02-17, 02:48:05,VALID,916.909,VALID,0,VALID,94.416,VALID,0.107441,VALID,21.1055,VALID,174,VALID,0.825391,
2010-02-17, 02:49:05,VALID,916.929,VALID,0,VALID,94.6218,VALID,0.214882,VALID,21.0649,VALID,174,VALID,1.09883,
2010-02-17, 02:50:05,VALID,916.998,VALID,0,VALID,94.82,VALID,0.107441,VALID,21.0275,VALID,174,VALID,1.125,
2010-02-17, 02:51:05,VALID,916.987,VALID,0,VALID,94.9801,VALID,0.107441,VALID,20.9885,VALID,173,VALID,1.13633,
2010-02-17, 02:52:05,VALID,916.995,VALID,0,VALID,95.0945,VALID,0.107441,VALID,20.9479,VALID,81,VALID,1.31094,
2010-02-17, 02:53:05,VALID,917.028,VALID,0,VALID,95.1402,VALID,0.107441,VALID,20.93,VALID,78,VALID,0.810547,
2010-02-17, 02:54:05,VALID,916.956,VALID,0,VALID,95.2165,VALID,0.107441,VALID,20.9089,VALID,78,VALID,1.15156,
2010-02-17, 02:55:05,VALID,916.949,VALID,0,VALID,95.2241,VALID,0.214882,VALID,20.9284,VALID,78,VALID,0.682422,
2010-02-17, 02:56:05,VALID,916.863,VALID,0,VALID,95.0411,VALID,0.214882,VALID,20.9089,VALID,78,VALID,0.689844,
2010-02-17, 02:57:05,VALID,916.781,VALID,0,VALID,95.0792,VALID,0.214882,VALID,20.9674,VALID,78,VALID,0.542578,
2010-02-17, 02:58:05,VALID,916.719,VALID,0,VALID,95.0945,VALID,0.107441,VALID,20.9885,VALID,78,VALID,0.371094,
2010-02-17, 02:59:05,VALID,916.706,VALID,0,VALID,95.0716,VALID,0.214882,VALID,21.0064,VALID,78,VALID,0.524219,
2010-02-17, 03:00:05,VALID,916.644,VALID,0,VALID,95.0259,VALID,0.107441,VALID,21.008,VALID,78,VALID,0.661719,
2010-02-17, 03:01:05,VALID,916.649,VALID,0,VALID,95.0488,VALID,0,VALID,21.0096,VALID,78,VALID,0.282422,
2010-02-17, 03:02:05,VALID,916.666,VALID,0,VALID,95.0869,VALID,0,VALID,21.008,VALID,78,VALID,0.251953,
2010-02-17, 03:03:05,VALID,916.678,VALID,0,VALID,95.0564,VALID,0.107441,VALID,21.0486,VALID,78,VALID,0.583984,
2010-02-17, 03:04:05,VALID,916.688,VALID,0,VALID,95.0945,VALID,0,VALID,21.008,VALID,78,VALID,0.569531,
2010-02-17, 03:05:05,VALID,916.653,VALID,0,VALID,95.1402,VALID,0,VALID,20.9885,VALID,78,VALID,0.324609,
2010-02-17, 03:06:05,VALID,916.657,VALID,0,VALID,95.2546,VALID,0,VALID,21.008,VALID,78,VALID,0.171875,
2010-02-17, 03:07:05,VALID,916.662,VALID,0,VALID,95.247,VALID,0,VALID,21.008,VALID,78,VALID,0.848437,
2010-02-17, 03:08:05,VALID,916.649,VALID,0,VALID,95.2088,VALID,0,VALID,20.9885,VALID,135,VALID,0.748047,
2010-02-17, 03:09:05,VALID,916.614,VALID,0,VALID,95.1174,VALID,0,VALID,21.008,VALID,135,VALID,0.678516,
2010-02-17, 03:10:05,VALID,916.587,VALID,0,VALID,94.8734,VALID,0,VALID,21.008,VALID,147,VALID,0.976563,
2010-02-17, 03:11:05,VALID,916.599,VALID,0,VALID,94.4999,VALID,0,VALID,21.0681,VALID,156,VALID,1.18359,
2010-02-17, 03:12:05,VALID,916.588,VALID,0,VALID,94.2712,VALID,0,VALID,21.1055,VALID,158,VALID,1.31094,
2010-02-17, 03:13:05,VALID,916.605,VALID,0,VALID,94.0882,VALID,0,VALID,21.1461,VALID,158,VALID,1.23672,
2010-02-17, 03:14:05,VALID,916.625,VALID,0,VALID,93.9738,VALID,0,VALID,21.1445,VALID,158,VALID,1.13398,
2010-02-17, 03:15:05,VALID,916.611,VALID,0,VALID,93.9052,VALID,0.107441,VALID,21.1445,VALID,158,VALID,1.3582,
2010-02-17, 03:16:05,VALID,916.618,VALID,0,VALID,93.9129,VALID,0,VALID,21.1445,VALID,125,VALID,1.18867,
2010-02-17, 03:17:05,VALID,916.62,VALID,0,VALID,93.9891,VALID,0,VALID,21.1461,VALID,125,VALID,0.960938,
2010-02-17, 03:18:05,VALID,916.613,VALID,0,VALID,94.0425,VALID,0,VALID,21.125,VALID,117,VALID,1.16719,
2010-02-17, 03:19:05,VALID,916.585,VALID,0,VALID,94.0958,VALID,0,VALID,21.1266,VALID,117,VALID,0.688281,
2010-02-17, 03:20:05,VALID,916.585,VALID,0,VALID,94.1034,VALID,0,VALID,21.1266,VALID,116,VALID,0.875,
2010-02-17, 03:21:05,VALID,916.573,VALID,0,VALID,94.0272,VALID,0.107441,VALID,21.125,VALID,116,VALID,0.528906,
2010-02-17, 03:22:05,VALID,916.569,VALID,0,VALID,93.8519,VALID,0.107441,VALID,21.1461,VALID,116,VALID,0.599609,
2010-02-17, 03:23:05,VALID,916.552,VALID,0,VALID,93.829,VALID,0,VALID,21.1445,VALID,116,VALID,0.654688,
2010-02-17, 03:24:05,VALID,916.557,VALID,0,VALID,93.8519,VALID,0.107441,VALID,21.1445,VALID,116,VALID,0.473047,
2010-02-17, 03:25:05,VALID,916.562,VALID,0,VALID,93.9052,VALID,0,VALID,21.1657,VALID,116,VALID,0.359375,
2010-02-17, 03:26:05,VALID,916.592,VALID,0,VALID,94.0348,VALID,0,VALID,21.125,VALID,116,VALID,0.2375,
2010-02-17, 03:27:05,VALID,916.57,VALID,0,VALID,94.1187,VALID,0,VALID,21.125,VALID,116,VALID,0.446875,
2010-02-17, 03:28:05,VALID,916.575,VALID,0,VALID,94.0653,VALID,0.107441,VALID,21.125,VALID,116,VALID,0.524219,
2010-02-17, 03:29:05,VALID,916.61,VALID,0,VALID,94.1263,VALID,0,VALID,21.1055,VALID,116,VALID,0.493359,
2010-02-17, 03:30:05,VALID,916.61,VALID,0,VALID,94.1873,VALID,0.107441,VALID,21.1055,VALID,116,VALID,0.802344,
2010-02-17, 03:31:05,VALID,916.644,VALID,0,VALID,94.294,VALID,0,VALID,21.086,VALID,116,VALID,0.663281,
2010-02-17, 03:32:05,VALID,916.628,VALID,0,VALID,94.4389,VALID,0,VALID,21.0681,VALID,116,VALID,0.607422,
2010-02-17, 03:33:04,VALID,916.69,VALID,0,VALID,94.538,VALID,0,VALID,21.0275,VALID,116,VALID,0.991406,
2010-02-17, 03:34:04,VALID,916.697,VALID,0,VALID,94.5227,VALID,0,VALID,21.008,VALID,116,VALID,0.962109,
2010-02-17, 03:35:04,VALID,916.683,VALID,0,VALID,94.3931,VALID,0,VALID,21.0275,VALID,103,VALID,1.20391,
2010-02-17, 03:36:04,VALID,916.625,VALID,0,VALID,94.1568,VALID,0,VALID,21.047,VALID,138,VALID,0.621484,
2010-02-17, 03:37:04,VALID,916.639,VALID,0,VALID,94.073,VALID,0,VALID,21.0876,VALID,138,VALID,0.88125,
2010-02-17, 03:38:04,VALID,916.62,VALID,0,VALID,93.9662,VALID,0,VALID,21.1071,VALID,138,VALID,0.649609,
2010-02-17, 03:39:04,VALID,916.591,VALID,0,VALID,93.9129,VALID,0,VALID,21.1266,VALID,138,VALID,0.870313,
2010-02-17, 03:40:04,VALID,916.592,VALID,0,VALID,93.9586,VALID,0,VALID,21.1461,VALID,138,VALID,0.539844,
2010-02-17, 03:41:04,VALID,916.587,VALID,0,VALID,94.1263,VALID,0,VALID,21.1266,VALID,138,VALID,0.451953,
2010-02-17, 03:42:04,VALID,916.571,VALID,0,VALID,94.1644,VALID,0,VALID,21.1266,VALID,138,VALID,0.823047,